Weather History for Annette Island, AK

Change the Weather History Date:

Wednesday, October 31, 2012

  Actual Average Record
Temperature  
Mean Temperature 32 °F 43 °F  
Max Temperature 43 °F 48 °F 67 °F (1970)
Min Temperature 20 °F 38 °F 18 °F (1984)
Degree Days  
Heating Degree Days 33 22  
Month to date heating degree days 635 565  
Since 1 July heating degree days 1428 1300  
Cooling Degree Days 0    
Month to date cooling degree days 0  
Year to date cooling degree days 7  
Moisture  
Dew Point 22 °F    
Average Humidity 0    
Maximum Humidity 0    
Minimum Humidity 0    
Precipitation  
Precipitation 0.00 in 0.48 in 3.00 in (1963)
Month to date precipitation 5.44 13.92  
Year to date precipitation 82.62 78.62  
Snow  
Snow 0.00 in 0.00 in 1.80 in (1956)
Month to date snowfall T 0.1  
Since 1 July snowfall T 0.1  
Since 1 September snowfall 0.0 0.1  
Snow Depth 0.00 in    
Sea Level Pressure  
Sea Level Pressure 29.75 in    
Wind  
Wind Speed 1 mph (NNW)    
Max Wind Speed 7 mph    
Max Gust Speed 8 mph    
Visibility 10 miles    
Events      
T = Trace of Precipitation, MM = Missing Value Source: NWS Daily Summary

Daily Weather History Graph

Daily Weather History Graph

Search for Another Location

Airport:

Trip Planner

Search our weather history database for the weather conditions in past years. The results will help you decide how hot, cold, wet, or windy it might be!

Date:

Astronomy

Oct. 31, 2012 Rise Set
Actual Time 7:49 AM AKDT 5:09 PM AKDT
Civil Twilight 7:10 AM AKDT 5:47 PM AKDT
Nautical Twilight 6:27 AM AKDT 6:30 PM AKDT
Astronomical Twilight 5:45 AM AKDT 7:12 PM AKDT
Moon 6:04 PM AKDT 9:57 AM AKDT
Length of Visible Light 10h 37m
Length of Day
9h 19m
Waning Gibbous, 96% of the Moon is Illuminated
Oct 31
Waning Gibbous
Nov 6
Last Quarter
Nov 13
New
Nov 20
First Quarter
Nov 28
Full

Hourly Weather History & Observations

Time (AKDT) Temp. Windchill Dew Point Humidity Pressure Visibility Wind Dir Wind Speed Gust Speed Precip Events Conditions
12:53 AM 28.0 °F 24.2 °F 21.0 °F 75% 29.81 in 10.0 mi North 3.5 mph - N/A   Clear
1:53 AM 27.0 °F - 19.9 °F 75% 29.80 in 10.0 mi Calm Calm - N/A   Clear
2:53 AM 25.0 °F - 21.0 °F 85% 29.80 in 10.0 mi Calm Calm - N/A   Clear
3:53 AM 21.9 °F - 19.0 °F 89% 29.80 in 10.0 mi Calm Calm - N/A   Clear
4:53 AM 21.9 °F - 19.0 °F 89% 29.79 in 10.0 mi Calm Calm - N/A   Clear
5:53 AM 21.9 °F - 19.9 °F 92% 29.78 in 10.0 mi Calm Calm - N/A   Clear
6:53 AM 21.9 °F 17.2 °F 19.9 °F 92% 29.76 in 10.0 mi NNE 3.5 mph - N/A   Clear
7:53 AM 24.1 °F - - N/A% 29.75 in 10.0 mi Calm Calm - N/A   Clear
8:53 AM 28.0 °F - 24.1 °F 85% 29.76 in 10.0 mi Calm Calm - N/A   Clear
9:53 AM 35.1 °F - 24.1 °F 64% 29.77 in 10.0 mi Calm Calm - N/A   Mostly Cloudy
10:53 AM 37.9 °F - 21.0 °F 51% 29.77 in 10.0 mi Calm Calm - N/A   Scattered Clouds
11:53 AM 42.1 °F - 24.1 °F 49% 29.76 in 10.0 mi Calm Calm - N/A   Mostly Cloudy
12:53 PM 42.1 °F - 21.0 °F 43% 29.75 in 10.0 mi Calm Calm - N/A   Mostly Cloudy
1:53 PM 42.1 °F - 21.0 °F 43% 29.74 in 10.0 mi Calm Calm - N/A   Mostly Cloudy
2:53 PM 39.9 °F 35.1 °F 21.0 °F 47% 29.73 in 10.0 mi WNW 6.9 mph - N/A   Mostly Cloudy
3:53 PM 37.9 °F 35.5 °F 23.0 °F 55% 29.72 in 10.0 mi NW 3.5 mph - N/A   Mostly Cloudy
4:53 PM 33.1 °F - 23.0 °F 66% 29.71 in 10.0 mi Calm Calm - N/A   Mostly Cloudy
5:53 PM 28.9 °F 25.2 °F 23.0 °F 78% 29.72 in 10.0 mi NNW 3.5 mph - N/A   Clear
6:53 PM 27.0 °F 23.0 °F 23.0 °F 85% 29.71 in 10.0 mi NNW 3.5 mph - N/A   Clear
7:53 PM 27.0 °F - 23.0 °F 85% 29.71 in 10.0 mi Calm Calm - N/A   Clear
8:53 PM 25.0 °F 19.3 °F 21.9 °F 88% 29.73 in 10.0 mi NNW 4.6 mph - N/A   Clear
9:53 PM 25.0 °F - 21.9 °F 88% 29.73 in 10.0 mi Calm Calm - N/A   Clear
10:53 PM 25.0 °F - 21.0 °F 85% 29.73 in 10.0 mi Calm Calm - N/A   Clear
11:53 PM 27.0 °F - 21.0 °F 78% 29.74 in 10.0 mi Calm Calm - N/A   Clear